TimeCDT,TemperatureF,Dew PointF,Humidity,Sea Level PressureIn,VisibilityMPH,Wind Direction,Wind SpeedMPH,Gust SpeedMPH,PrecipitationIn,Events,Conditions,WindDirDegrees,DateUTC
12:15 AM,68.0,58.6,72,29.61,10.0,ESE,6.9,-,N/A,,Scattered Clouds,120,2013-05-21 05:15:00
12:35 AM,68.9,58.3,69,29.62,10.0,SE,9.2,-,N/A,,Mostly Cloudy,140,2013-05-21 05:35:00
12:55 AM,69.4,58.1,67,29.62,10.0,SSE,13.8,-,N/A,,Overcast,160,2013-05-21 05:55:00
1:15 AM,69.4,57.4,65,29.62,10.0,South,13.8,19.6,N/A,,Mostly Cloudy,170,2013-05-21 06:15:00
1:35 AM,68.9,56.5,65,29.62,10.0,South,15.0,-,N/A,,Mostly Cloudy,190,2013-05-21 06:35:00
1:55 AM,68.9,55.4,62,29.63,10.0,South,16.1,24.2,N/A,,Overcast,190,2013-05-21 06:55:00
2:15 AM,67.3,55.4,66,29.62,10.0,SSW,19.6,26.5,N/A,,Scattered Clouds,200,2013-05-21 07:15:00
2:35 AM,66.4,55.8,69,29.62,10.0,SSW,12.7,23.0,N/A,,Mostly Cloudy,210,2013-05-21 07:35:00
2:55 AM,66.2,56.3,70,29.62,10.0,WSW,10.4,17.3,N/A,,Overcast,250,2013-05-21 07:55:00
3:15 AM,64.9,55.2,71,29.60,10.0,SW,4.6,-,N/A,,Overcast,220,2013-05-21 08:15:00
3:35 AM,63.7,56.1,76,29.60,10.0,South,3.5,-,N/A,,Mostly Cloudy,180,2013-05-21 08:35:00
3:55 AM,61.9,55.8,80,29.59,10.0,South,3.5,-,N/A,,Scattered Clouds,170,2013-05-21 08:55:00
4:15 AM,60.1,55.2,84,29.60,10.0,South,3.5,-,N/A,,Clear,180,2013-05-21 09:15:00
4:35 AM,60.4,55.4,83,29.60,10.0,Calm,Calm,-,N/A,,Clear,0,2013-05-21 09:35:00
4:55 AM,60.3,55.4,84,29.61,10.0,South,4.6,-,N/A,,Scattered Clouds,190,2013-05-21 09:55:00
5:15 AM,62.2,56.3,81,29.61,10.0,South,8.1,-,N/A,,Mostly Cloudy,180,2013-05-21 10:15:00
5:35 AM,62.6,55.9,79,29.61,10.0,South,9.2,-,N/A,,Scattered Clouds,190,2013-05-21 10:35:00
5:55 AM,62.6,56.3,80,29.61,10.0,South,9.2,-,N/A,,Clear,190,2013-05-21 10:55:00
6:15 AM,62.8,56.5,80,29.62,10.0,South,9.2,-,N/A,,Clear,190,2013-05-21 11:15:00
6:35 AM,63.3,56.8,79,29.62,10.0,SSW,8.1,-,N/A,,Mostly Cloudy,200,2013-05-21 11:35:00
6:55 AM,63.9,57.4,79,29.63,10.0,SSW,9.2,-,N/A,,Mostly Cloudy,200,2013-05-21 11:55:00
7:15 AM,64.2,57.2,78,29.63,10.0,SSW,10.4,17.3,N/A,,Mostly Cloudy,210,2013-05-21 12:15:00
7:35 AM,63.7,57.2,79,29.62,10.0,SSW,10.4,-,N/A,,Scattered Clouds,200,2013-05-21 12:35:00
7:55 AM,65.5,57.6,76,29.62,10.0,SSW,11.5,-,N/A,,Clear,200,2013-05-21 12:55:00
8:15 AM,65.1,57.4,76,29.62,10.0,South,12.7,-,N/A,,Scattered Clouds,190,2013-05-21 13:15:00
8:35 AM,66.4,57.7,74,29.62,10.0,SSW,11.5,18.4,N/A,,Scattered Clouds,200,2013-05-21 13:35:00
8:55 AM,66.7,57.9,73,29.62,10.0,South,11.5,-,N/A,,Scattered Clouds,180,2013-05-21 13:55:00
9:15 AM,67.6,57.6,70,29.63,10.0,SSW,12.7,-,N/A,,Mostly Cloudy,200,2013-05-21 14:15:00
9:35 AM,67.3,57.7,71,29.63,10.0,South,16.1,-,N/A,,Overcast,170,2013-05-21 14:35:00
9:55 AM,66.4,57.9,74,29.64,10.0,South,10.4,-,N/A,,Overcast,190,2013-05-21 14:55:00
10:15 AM,65.8,58.1,76,29.64,10.0,SSW,9.2,-,N/A,,Overcast,200,2013-05-21 15:15:00
10:35 AM,68.0,58.1,71,29.64,10.0,SSW,10.4,-,N/A,,Mostly Cloudy,200,2013-05-21 15:35:00
10:55 AM,70.5,57.4,63,29.63,10.0,SSW,12.7,-,N/A,,Overcast,200,2013-05-21 15:55:00
11:15 AM,71.8,55.9,57,29.62,10.0,SSW,18.4,23.0,N/A,,Overcast,200,2013-05-21 16:15:00
11:35 AM,71.4,56.1,58,29.62,10.0,WSW,9.2,18.4,N/A,,Overcast,240,2013-05-21 16:35:00
11:55 AM,70.5,56.1,60,29.62,10.0,WSW,10.4,-,N/A,,Mostly Cloudy,240,2013-05-21 16:55:00
12:15 PM,73.0,54.5,52,29.62,10.0,WSW,11.5,17.3,N/A,,Mostly Cloudy,240,2013-05-21 17:15:00
12:35 PM,73.0,54.1,51,29.62,10.0,SW,12.7,20.7,N/A,,Overcast,220,2013-05-21 17:35:00
12:55 PM,72.0,53.8,53,29.62,10.0,SSW,13.8,20.7,N/A,,Overcast,210,2013-05-21 17:55:00
1:15 PM,71.2,54.1,55,29.63,10.0,SW,11.5,19.6,N/A,,Overcast,230,2013-05-21 18:15:00
1:35 PM,73.0,53.8,51,29.63,10.0,SW,15.0,21.9,N/A,,Overcast,230,2013-05-21 18:35:00
1:55 PM,72.0,53.8,53,29.64,10.0,SW,15.0,-,N/A,,Overcast,230,2013-05-21 18:55:00
2:15 PM,73.2,53.6,50,29.64,10.0,SW,18.4,24.2,N/A,,Overcast,230,2013-05-21 19:15:00
2:35 PM,71.8,54.1,54,29.65,10.0,WSW,12.7,19.6,N/A,,Overcast,240,2013-05-21 19:35:00
2:55 PM,72.7,54.7,53,29.65,10.0,SW,13.8,19.6,N/A,,Overcast,230,2013-05-21 19:55:00
3:15 PM,71.8,54.3,54,29.65,10.0,WSW,12.7,20.7,N/A,,Overcast,240,2013-05-21 20:15:00
3:35 PM,71.2,53.6,54,29.65,10.0,WSW,13.8,23.0,N/A,,Overcast,250,2013-05-21 20:35:00
3:55 PM,72.1,53.6,52,29.65,10.0,WSW,13.8,18.4,N/A,,Mostly Cloudy,240,2013-05-21 20:55:00
4:15 PM,71.8,53.6,53,29.65,10.0,WSW,11.5,18.4,N/A,,Mostly Cloudy,240,2013-05-21 21:15:00
4:35 PM,71.8,53.1,52,29.65,10.0,WSW,15.0,-,N/A,,Mostly Cloudy,240,2013-05-21 21:35:00
4:55 PM,71.1,53.6,54,29.66,10.0,WSW,11.5,16.1,N/A,,Overcast,250,2013-05-21 21:55:00
5:15 PM,70.7,53.8,55,29.67,10.0,WSW,12.7,-,N/A,,Overcast,240,2013-05-21 22:15:00
5:35 PM,70.2,52.3,53,29.67,10.0,WSW,12.7,21.9,N/A,,Mostly Cloudy,240,2013-05-21 22:35:00
5:55 PM,70.2,51.8,52,29.67,10.0,WSW,11.5,17.3,N/A,,Overcast,240,2013-05-21 22:55:00
6:15 PM,69.3,52.0,54,29.67,10.0,SW,11.5,-,N/A,,Mostly Cloudy,230,2013-05-21 23:15:00
6:35 PM,68.9,52.7,56,29.67,10.0,WSW,5.8,-,N/A,,Mostly Cloudy,250,2013-05-21 23:35:00
6:55 PM,68.0,53.6,60,29.67,10.0,WSW,4.6,-,N/A,,Mostly Cloudy,240,2013-05-21 23:55:00
7:15 PM,68.0,52.3,57,29.67,10.0,WSW,6.9,-,N/A,,Overcast,250,2013-05-22 00:15:00
7:35 PM,67.5,52.5,59,29.67,10.0,WSW,4.6,-,N/A,,Overcast,240,2013-05-22 00:35:00
7:55 PM,67.1,53.2,61,29.68,10.0,WSW,3.5,-,N/A,,Overcast,250,2013-05-22 00:55:00
8:15 PM,66.7,53.6,63,29.69,10.0,Calm,Calm,-,N/A,,Overcast,0,2013-05-22 01:15:00
8:35 PM,66.2,53.6,64,29.70,10.0,Calm,Calm,-,N/A,,Overcast,0,2013-05-22 01:35:00
8:55 PM,65.7,53.8,65,29.70,10.0,West,3.5,-,N/A,,Overcast,260,2013-05-22 01:55:00
9:15 PM,65.7,53.8,65,29.70,10.0,Calm,Calm,-,N/A,,Overcast,0,2013-05-22 02:15:00
9:35 PM,64.9,54.0,68,29.71,10.0,Calm,Calm,-,N/A,,Overcast,0,2013-05-22 02:35:00
9:55 PM,64.9,54.3,68,29.70,10.0,Calm,Calm,-,N/A,,Overcast,0,2013-05-22 02:55:00
10:15 PM,64.6,54.0,68,29.70,10.0,Calm,Calm,-,N/A,,Overcast,0,2013-05-22 03:15:00
10:35 PM,62.2,54.5,76,29.69,10.0,Calm,Calm,-,N/A,,Mostly Cloudy,0,2013-05-22 03:35:00
10:55 PM,60.8,54.0,78,29.69,10.0,Calm,Calm,-,N/A,,Clear,0,2013-05-22 03:55:00
11:15 PM,59.2,54.0,83,29.69,10.0,Calm,Calm,-,N/A,,Scattered Clouds,0,2013-05-22 04:15:00
11:35 PM,59.0,53.6,82,29.68,10.0,Calm,Calm,-,N/A,,Scattered Clouds,0,2013-05-22 04:35:00
11:55 PM,58.1,53.6,85,29.69,10.0,Calm,Calm,-,N/A,,Mostly Cloudy,0,2013-05-22 04:55:00